User: anonymous   Login
Location: Rio Negrinho
(26.2394°S, 49.4999°W)
Time: 10:16:06
(UTC+00:00)
Language:

SEDSat Delta rocket - Orbit

View from above orbital plane
View from above orbital plane
View from above satellite
View from above satellite

Ground track
Ground track

The orbit data is extracted from the following two-line orbital elements,

1 25510U 98061C   21136.68718806  .00000230  00000-0  28388-4 0  9992
2 25510  31.4335 218.8511 0326679 161.9605 330.7069 14.37587543183659
Epoch (UTC): 16 May 2021 16:29:33
Eccentricity: 0.0326679
inclination: 31.4335°
perigee height: 533 km
apogee height: 1000 km
right ascension of ascending node: 218.8511°
argument of perigee: 161.9605°
revolutions per day: 14.37587543
mean anomaly at epoch: 330.7069°
orbit number at epoch: 18365

The dashed part of the orbit path shows where the satellite is in the earth's shadow,  

DLR